Content
SEND FEEDBACK

Daily
Averages
Monthly
Summary
United States of America

CAPUTA, SOUTH DAKOTA


Home > North America > United States > South Dakota
Elevation: 3149 feet     Latitude: 44 03N     Longitude: 103 04W

WEATHER
 
SELECT A DAY
Number of Records: 205,242;   Date Range: 1/1/95 - 12/25/14
 
SHARE

PRINT THIS DATA

[ ← Previous Day ]
WEATHER ALMANAC - FEBRUARY 3, 2013
[ Next Day → ]
[ °C ]   °F
Weather ElementAverageHighLow
Temperature38.6 °F57.9 °F (1:52 pm)24.8 °F (4:52 am)
Dewpoint19.6 °F27 °F (9:52 am)15.1 °F (1:52 pm)
Humidity51.3 %75 % (3:52 am)19 % (1:52 pm)
Barometer29.96 in30.14 in (2:52 am)29.81 in (1:52 pm)
Wind Speed9.2 mph26.5 mph (3:52 pm)
Wind Gust36.8 mph (2:52 pm)
Weather ElementAverage
Visibility10 mi
Wind DirectionSSW (215.2 °)

Weather ElementTotal
Precipitation---
Heating Degree Days23.7 (Base 65)
Averaged from 23 records on February 3, 2013
WEATHER CONDITIONS BREAKOUT
WIND DIRECTION BREAKOUT
WEATHER BY HOUR - FEBRUARY 3, 2013
[ °C ]   °F
Local TimeTemperatureDewpointHumidityBarometerVisibilityWind DirectionWind SpeedGust SpeedPrecipitationEventsConditions
1:52 AM26.6 °F19.4 °F74 %30.10 inCalmClear
2:52 AM26.1 °F18.0 °F71 %30.14 inWSW (250°)4.6 mphClear
3:52 AM26.1 °F19.0 °F75 %30.12 inCalmClear
4:52 AM24.8 °F17.6 °F74 %30.02 inCalmClear
5:52 AM28.0 °F19.0 °F69 %30.08 inSSW (210°)4.6 mphClear
6:52 AM26.1 °F17.1 °F69 %30.06 in10.0 miWSW (250°)5.8 mphClear
7:52 AM30.0 °F21.0 °F69 %30.04 in10.0 miCalmClear
8:52 AM35.1 °F24.1 °F64 %30.00 in10.0 miCalmClear
9:52 AM41.0 °F27.0 °F57 %29.95 in10.0 miCalmClear
10:52 AM50.0 °F21.9 °F33 %29.92 in10.0 miSSW (200°)9.2 mphClear
11:52 AM52.0 °F19.9 °F28 %29.88 in10.0 miSouth (180°)9.2 mphClear
12:52 PM54.0 °F18.0 °F24 %29.86 in10.0 miSW (230°)4.6 mphClear
1:52 PM57.9 °F15.1 °F19 %29.81 in10.0 miNW (320°)12.7 mph17.3 mphClear
2:52 PM55.0 °F15.1 °F21 %29.82 in10.0 miNNW (340°)24.2 mph36.8 mphClear
3:52 PM52.0 °F16.0 °F24 %29.85 in10.0 miNNW (340°)26.5 mph33.4 mphClear
4:52 PM46.0 °F18.0 °F33 %29.86 in10.0 miNW (310°)18.4 mphClear
5:52 PM42.1 °F19.0 °F40 %29.88 in10.0 miNW (320°)16.1 mphClear
6:52 PM41.0 °F19.9 °F43 %29.91 in10.0 miNNW (330°)18.4 mphClear
7:52 PM39.0 °F21.0 °F49 %29.92 in10.0 miNNW (330°)16.1 mphClear
8:52 PM36.0 °F21.0 °F55 %29.94 in10.0 miNNW (330°)11.5 mphClear
9:52 PM34.0 °F21.0 °F59 %29.94 in10.0 miNW (320°)8.1 mphClear
10:52 PM33.1 °F21.9 °F64 %29.94 in10.0 miNorth (350°)10.4 mphClear
11:52 PM32.0 °F21.9 °F66 %29.95 inNNW (340°)11.5 mphClear
Hourly data recorded from KRAP, located miles away from Caputa, South Dakota







STORIES FROM OUR PARTNERS